CDT,Max TemperatureF,Mean TemperatureF,Min TemperatureF,Max Dew PointF,MeanDew PointF,Min DewpointF,Max Humidity, Mean Humidity, Min Humidity, Max Sea Level PressureIn, Mean Sea Level PressureIn, Min Sea Level PressureIn, Max VisibilityMiles, Mean VisibilityMiles, Min VisibilityMiles, Max Wind SpeedMPH, Mean Wind SpeedMPH, Max Gust SpeedMPH,PrecipitationIn, CloudCover, Events, WindDirDegrees
2012-8-1,,,,,,,,,,,,,,,,,,,,,,
2012-8-2,78,76,73,63,59,55,69,54,44,29.84,29.83,29.82,10,10,10,12,7,,0.00,2,,309
2012-8-3,80,70,60,64,61,55,83,66,48,29.94,29.92,29.88,10,8,0,8,4,,0.00,3,,128
2012-8-4,75,70,64,63,59,54,88,70,50,29.81,29.78,29.72,10,10,7,20,10,31,0.01,3,Thunderstorm,224
2012-8-5,71,63,55,54,48,45,82,62,43,30.07,29.99,29.82,10,10,9,18,12,25,0.03,3,,289
2012-8-6,82,70,57,63,56,50,88,56,39,30.05,29.95,29.86,10,10,10,17,10,23,0.04,0,Thunderstorm,230
2012-8-7,73,68,62,63,59,52,94,79,47,30.00,29.94,29.90,10,10,10,8,3,,0.00,1,,315
2012-8-8,62,56,51,57,55,48,94,81,68,30.07,30.04,30.01,10,8,0,9,5,,0.11,6,,177
2012-8-9,64,56,48,57,53,46,94,84,72,30.12,30.03,29.97,10,9,0,14,3,16,0.33,6,Thunderstorm,68
2012-8-10,64,54,44,55,47,39,94,75,49,30.15,30.12,30.08,10,7,0,15,3,21,0.01,1,,24
2012-8-11,71,54,39,52,45,34,93,70,43,30.09,30.05,30.00,10,9,0,13,2,,0.00,0,,354
2012-8-12,75,58,44,57,51,39,93,72,50,30.01,29.97,29.93,10,9,0,9,2,,0.00,0,,262
2012-8-13,73,63,53,59,54,48,94,74,50,29.96,29.94,29.92,10,9,0,14,4,16,0.00,1,,288
2012-8-14,73,60,48,54,48,45,88,68,41,29.95,29.93,29.90,10,8,0,8,3,,0.00,2,,295
2012-8-15,78,61,44,59,54,39,87,57,44,29.90,29.80,29.70,10,10,3,13,7,22,0.00,3,,178
2012-8-16,66,65,57,61,54,46,88,73,57,29.92,29.76,29.67,10,10,4,24,13,32,0.00,7,Thunderstorm,280
2012-8-17,66,57,48,48,43,39,82,57,45,30.02,29.98,29.92,10,10,10,16,9,23,0.00,1,,309
2012-8-18,71,58,44,54,47,39,94,66,46,29.98,29.95,29.91,10,10,1,17,5,23,0.00,1,,279
2012-8-19,64,55,44,54,41,34,87,54,32,30.00,29.98,29.96,10,10,10,10,5,,0.00,0,,329
2012-8-20,71,56,42,50,45,37,87,62,40,29.98,29.96,29.93,10,10,5,16,4,23,0.00,3,,282
2012-8-21,77,62,46,52,47,41,87,58,34,30.04,29.99,29.96,10,10,9,16,5,18,0.00,0,,240
2012-8-22,82,70,57,55,51,46,82,50,35,29.98,29.95,29.92,10,10,10,17,9,21,0.00,0,,217
2012-8-23,73,68,64,63,59,54,83,71,56,29.98,29.93,29.84,10,10,10,14,8,20,0.15,3,,167
2012-8-24,84,74,64,64,61,57,88,63,48,29.87,29.84,29.82,10,10,9,14,9,25,0.00,1,,198
2012-8-25,82,76,69,63,60,57,73,60,42,29.96,29.92,29.88,10,10,10,15,9,24,0.00,0,,206
2012-8-26,82,73,64,63,59,50,83,66,34,29.96,29.93,29.89,10,10,9,16,6,21,0.00,4,,209
2012-8-27,73,62,50,54,52,45,82,58,47,30.10,30.08,30.02,10,10,8,13,5,,0.00,0,,314
2012-8-28,75,62,48,54,50,45,93,60,38,30.16,30.10,30.06,10,9,1,9,2,,0.00,1,,32
2012-8-29,89,86,75,64,62,61,65,43,38,29.92,29.88,29.84,10,10,10,13,10,18,0.00,0,,198
2012-8-30,82,74,64,64,61,55,78,58,48,29.89,29.78,29.69,10,10,10,18,12,28,0.00,0,,235
2012-8-31,75,65,57,55,53,43,88,68,31,30.10,30.00,29.90,10,10,2,8,5,,0.00,0,,290